Weather History for Appleton, MN

Change the Weather History Date:

Monday, April 8, 2013

  Actual Average Record
Temperature  
Mean Temperature 37 °F -  
Max Temperature 44 °F 48 °F 71 °F (2005)
Min Temperature 30 °F 28 °F 5 °F (1997)
Degree Days  
Heating Degree Days 28    
Moisture  
Dew Point 36 °F    
Average Humidity 90    
Maximum Humidity 100    
Minimum Humidity 76    
Precipitation  
Precipitation 0.00 in - - ()
Sea Level Pressure  
Sea Level Pressure 29.84 in    
Wind  
Wind Speed 9 mph (NNE)    
Max Wind Speed 24 mph    
Max Gust Speed 32 mph    
Averages and records for this station are not official NWS values.
T = Trace of Precipitation, MM = Missing Value Source: NWS Daily Summary

Daily Weather History Graph

Daily Weather History Graph

Search for Another Location

Airport:

Trip Planner

Search our weather history database for the weather conditions in past years. The results will help you decide how hot, cold, wet, or windy it might be!

Date:

Astronomy

Apr. 08, 2013 Rise Set
Actual Time 6:51 AM CDT 8:01 PM CDT
Civil Twilight 6:20 AM CDT 8:31 PM CDT
Nautical Twilight 5:44 AM CDT 9:08 PM CDT
Astronomical Twilight 5:06 AM CDT 9:46 PM CDT
Moon 5:45 AM CDT (4/8) 6:34 PM CDT (4/8)
Length of Visible Light 14h 10m
Length of Day
13h 10m
Waning Crescent, 3% of the Moon is Illuminated
Apr 8
Waning Crescent
Apr 10
New
Apr 18
First Quarter
Apr 25
Full
May 2
Last Quarter

Hourly Weather History & Observations

Time (CDT) Temp. Windchill Dew Point Humidity Pressure Visibility Wind Dir Wind Speed Gust Speed Precip Events Conditions
12:13 AM 39.2 °F 35.9 °F 39.2 °F 100% 29.71 in - ENE 4.6 mph - N/A   Overcast
12:33 AM 39.2 °F 35.9 °F 39.2 °F 100% 29.71 in - NE 4.6 mph - N/A   Overcast
12:53 AM 39.2 °F 35.0 °F 39.2 °F 100% 29.71 in - NNE 5.8 mph - N/A   Overcast
1:13 AM 39.2 °F 35.0 °F 39.2 °F 100% 29.71 in - NNE 5.8 mph - N/A   Overcast
1:33 AM 39.2 °F 35.9 °F 37.4 °F 93% 29.71 in - NE 4.6 mph - N/A   Overcast
1:53 AM 39.2 °F 35.9 °F 37.4 °F 93% 29.71 in - NE 4.6 mph - N/A   Overcast
2:13 AM 39.2 °F 33.0 °F 37.4 °F 93% 29.70 in - NE 9.2 mph - N/A   Overcast
2:33 AM 39.2 °F 33.0 °F 37.4 °F 93% 29.70 in - NE 9.2 mph - N/A   Overcast
2:53 AM 39.2 °F 33.6 °F 37.4 °F 93% 29.70 in - NE 8.1 mph - N/A   Overcast
3:13 AM 39.2 °F 33.6 °F 37.4 °F 93% 29.69 in - ENE 8.1 mph - N/A   Overcast
3:33 AM 39.2 °F 33.6 °F 37.4 °F 93% 29.69 in - NE 8.1 mph - N/A   Overcast
3:53 AM 39.2 °F 34.2 °F 37.4 °F 93% 29.69 in - ENE 6.9 mph - N/A   Overcast
4:14 AM 39.2 °F 33.0 °F 37.4 °F 93% 29.69 in - ENE 9.2 mph - N/A   Overcast
4:33 AM 39.2 °F 34.2 °F 37.4 °F 93% 29.69 in - NNE 6.9 mph - N/A   Overcast
4:53 AM 39.2 °F 34.2 °F 37.4 °F 93% 29.70 in - NNE 6.9 mph - N/A   Overcast
5:13 AM 37.4 °F 32.8 °F 37.4 °F 100% 29.70 in - NNE 5.8 mph - N/A   Overcast
5:33 AM 37.4 °F 32.8 °F 37.4 °F 100% 29.70 in - NNE 5.8 mph - N/A   Overcast
5:53 AM 37.4 °F 30.8 °F 37.4 °F 100% 29.70 in - NE 9.2 mph - N/A   Overcast
6:13 AM 37.4 °F 30.3 °F 37.4 °F 100% 29.70 in - NE 10.4 mph - N/A   Overcast
6:33 AM 37.4 °F 31.4 °F 35.6 °F 93% 29.71 in - NE 8.1 mph - N/A   Overcast
6:53 AM 37.4 °F 31.4 °F 35.6 °F 93% 29.72 in - NE 8.1 mph - N/A   Overcast
7:13 AM 37.4 °F 32.1 °F 35.6 °F 93% 29.73 in - NNE 6.9 mph - N/A   Overcast
7:33 AM 37.4 °F 32.1 °F 35.6 °F 93% 29.73 in - NNE 6.9 mph - N/A   Overcast
7:54 AM 37.4 °F 32.8 °F 35.6 °F 93% 29.75 in - North 5.8 mph - N/A   Overcast
8:13 AM 37.4 °F 31.4 °F 35.6 °F 93% 29.75 in - NE 8.1 mph - N/A   Overcast
8:33 AM 37.4 °F 32.1 °F 37.4 °F 100% 29.75 in - NNE 6.9 mph - N/A   Overcast
8:54 AM 37.4 °F 32.1 °F 37.4 °F 100% 29.75 in - NNE 6.9 mph - N/A   Overcast
9:13 AM 37.4 °F 31.4 °F 37.4 °F 100% 29.75 in - NNE 8.1 mph - N/A   Overcast
9:34 AM 39.2 °F 34.2 °F 37.4 °F 93% 29.76 in - NNE 6.9 mph - N/A   Overcast
9:54 AM 39.2 °F 33.6 °F 37.4 °F 93% 29.77 in - NNE 8.1 mph - N/A   Overcast
10:13 AM 39.2 °F 33.0 °F 37.4 °F 93% 29.78 in - NNE 9.2 mph - N/A   Overcast
10:33 AM 39.2 °F 34.2 °F 37.4 °F 93% 29.78 in - NNE 6.9 mph - N/A   Overcast
10:54 AM 39.2 °F 33.6 °F 37.4 °F 93% 29.79 in - North 8.1 mph - N/A   Overcast
11:14 AM 39.2 °F 33.0 °F 37.4 °F 93% 29.80 in - NNE 9.2 mph - N/A   Overcast
11:33 AM 41.0 °F 34.3 °F 37.4 °F 87% 29.81 in - North 11.5 mph - N/A   Overcast
11:53 AM 41.0 °F 34.3 °F 39.2 °F 93% 29.81 in - NNE 11.5 mph - N/A   Overcast
12:13 PM 41.0 °F 34.3 °F 39.2 °F 93% 29.82 in - North 11.5 mph - N/A   Overcast
12:33 PM 42.8 °F 36.6 °F 39.2 °F 87% 29.82 in - NNE 11.5 mph - N/A   Overcast
12:54 PM 42.8 °F 36.6 °F 39.2 °F 87% 29.82 in - NNE 11.5 mph - N/A   Overcast
1:13 PM 42.8 °F 36.6 °F 37.4 °F 81% 29.83 in - North 11.5 mph - N/A   Overcast
1:33 PM 42.8 °F 36.2 °F 37.4 °F 81% 29.84 in - North 12.7 mph - N/A   Overcast
1:54 PM 42.8 °F 36.6 °F 37.4 °F 81% 29.83 in - NNE 11.5 mph - N/A   Overcast
2:14 PM 42.8 °F 36.6 °F 37.4 °F 81% 29.84 in - NNE 11.5 mph - N/A   Overcast
2:33 PM 44.6 °F 38.4 °F 39.2 °F 81% 29.84 in - NNE 12.7 mph - N/A   Overcast
2:54 PM 44.6 °F 37.8 °F 39.2 °F 81% 29.84 in - North 15.0 mph - N/A   Overcast
3:13 PM 44.6 °F 38.8 °F 39.2 °F 81% 29.86 in - NNE 11.5 mph 15.0 mph N/A   Overcast
3:34 PM 44.6 °F 38.8 °F 37.4 °F 76% 29.87 in - NNE 11.5 mph - N/A   Overcast
3:53 PM 42.8 °F 35.1 °F 39.2 °F 87% 29.88 in - North 16.1 mph - N/A   Overcast
4:13 PM 42.8 °F 35.4 °F 37.4 °F 81% 29.89 in - North 15.0 mph - N/A   Overcast
4:33 PM 42.8 °F 35.4 °F 37.4 °F 81% 29.90 in - North 15.0 mph - N/A   Overcast
4:53 PM 39.2 °F 29.8 °F 35.6 °F 87% 29.91 in - North 18.4 mph 21.9 mph N/A   Overcast
5:13 PM 39.2 °F 29.0 °F 35.6 °F 87% 29.92 in - NNW 21.9 mph 25.3 mph N/A   Unknown
5:33 PM - - - N/A% - - North - - N/A   Unknown
5:54 PM 35.6 °F 24.5 °F 33.8 °F 93% 29.95 in - North 20.7 mph 26.5 mph N/A   Overcast
6:14 PM 35.6 °F 24.8 °F 33.8 °F 93% 29.95 in - North 19.6 mph 25.3 mph N/A   Overcast
6:33 PM 35.6 °F 24.8 °F 33.8 °F 93% 29.96 in - North 19.6 mph 24.2 mph N/A   Overcast
6:53 PM 35.6 °F 25.5 °F 32.0 °F 87% 29.98 in - North 17.3 mph 24.2 mph N/A   Overcast
7:13 PM 35.6 °F 25.9 °F 32.0 °F 87% 30.00 in - North 16.1 mph - N/A   Unknown
7:33 PM 35.6 °F 25.9 °F 32.0 °F 87% 30.00 in - North 16.1 mph - N/A   Unknown
7:53 PM 35.6 °F 25.2 °F 32.0 °F 87% 30.00 in - North 18.4 mph 23.0 mph N/A   Overcast
8:13 PM - - - N/A% 30.02 in - North 15.0 mph - N/A   Unknown
8:33 PM - - - N/A% 30.02 in - North 17.3 mph - N/A   Unknown
8:54 PM 35.6 °F 25.5 °F 30.2 °F 81% 30.03 in - North 17.3 mph - N/A   Overcast
9:13 PM 33.8 °F 23.2 °F 30.2 °F 87% 30.04 in - North 17.3 mph - N/A   Unknown
9:33 PM 33.8 °F 23.2 °F 30.2 °F 87% 30.05 in - North 17.3 mph 21.9 mph N/A   Overcast
9:53 PM 33.8 °F 23.5 °F 30.2 °F 87% 30.06 in - North 16.1 mph 20.7 mph N/A   Overcast
10:13 PM - - - N/A% 30.08 in - North 18.4 mph - N/A   Unknown
10:33 PM 33.8 °F 23.2 °F 28.4 °F 81% 30.09 in - North 17.3 mph - N/A   Overcast
10:54 PM 32.0 °F 20.1 °F 28.4 °F 87% 30.10 in - North 19.6 mph - N/A   Overcast
11:13 PM 32.0 °F 18.9 °F 28.4 °F 87% 30.10 in - North 24.2 mph - N/A   Overcast
11:33 PM 30.2 °F 16.5 °F 26.6 °F 86% 30.10 in - North 24.2 mph 28.8 mph N/A   Overcast
11:53 PM 30.2 °F 17.1 °F 26.6 °F 86% 30.10 in - North 21.9 mph 32.2 mph N/A   Overcast